| time (UTC) | temp C | wind direction | speed KPH | gust KPH | rain 1hr cm | rain 24hr cm | rain mn cm | humidity % | barometer mb |
| 20260507213029 | 22 | 328 | 11.3 | 20.9 | 0.00 | 0.00 | 0.00 | 35 | 1018.7 |
| 20260507211607 | 22 | 338 | 11.3 | 22.5 | 0.00 | 0.00 | 0.00 | 36 | 1018.9 |
| 20260507210030 | 21 | 339 | 8.0 | 17.7 | 0.00 | 0.00 | 0.00 | 37 | 1019.1 |
| 20260507203031 | 21 | 359 | 6.4 | 14.5 | 0.00 | 0.00 | 0.00 | 38 | 1019.4 |
| 20260507200031 | 20 | 18 | 6.4 | 19.3 | 0.00 | 0.00 | 0.00 | 41 | 1019.6 |
| 20260507191529 | 21 | 50 | 3.2 | 11.3 | 0.00 | 0.00 | 0.00 | 43 | 1020.0 |
| 20260507190029 | 21 | 12 | 4.8 | 12.9 | 0.00 | 0.00 | 0.00 | 45 | 1020.1 |
| 20260507184529 | 20 | 45 | 4.8 | 12.9 | 0.00 | 0.00 | 0.00 | 48 | 1020.3 |
| 20260507183040 | 18 | 39 | 3.2 | 11.3 | 0.00 | 0.00 | 0.00 | 52 | 1020.4 |
| 20260507181608 | 17 | 360 | 4.8 | 14.5 | 0.00 | 0.00 | 0.00 | 53 | 1020.6 |
| 20260507180103 | 18 | 351 | 6.4 | 16.1 | 0.00 | 0.00 | 0.00 | 55 | 1020.7 |
| 20260507174531 | 17 | 37 | 6.4 | 12.9 | 0.00 | 0.00 | 0.00 | 57 | 1020.8 |
| 20260507171534 | 16 | 8 | 8.0 | 17.7 | 0.00 | 0.00 | 0.00 | 60 | 1021.0 |
| 20260507170032 | 17 | 3 | 6.4 | 19.3 | 0.00 | 0.00 | 0.00 | 61 | 1021.0 |
| 20260507163147 | 16 | 283 | 4.8 | 12.9 | 0.00 | 0.00 | 0.00 | 62 | 1020.8 |
| 20260507161604 | 16 | 275 | 6.4 | 12.9 | 0.00 | 0.00 | 0.00 | 62 | 1021.0 |
| 20260507160033 | 16 | 281 | 6.4 | 12.9 | 0.00 | 0.00 | 0.00 | 65 | 1021.2 |
| 20260507154531 | 16 | 266 | 3.2 | 8.0 | 0.00 | 0.00 | 0.00 | 70 | 1021.4 |
| 20260507153032 | 15 | 278 | 1.6 | 8.0 | 0.00 | 0.00 | 0.00 | 75 | 1021.6 |
| 20260507151530 | 13 | 256 | 3.2 | 8.0 | 0.00 | 0.00 | 0.00 | 86 | 1021.7 |
| 20260507150043 | 10 | 271 | 1.6 | 6.4 | 0.00 | 0.00 | 0.00 | 92 | 1021.6 |
| 20260507144533 | 8 | 275 | 1.6 | 6.4 | 0.00 | 0.00 | 0.00 | 93 | 1021.6 |
| 20260507143030 | 8 | 252 | 3.2 | 6.4 | 0.00 | 0.00 | 0.00 | 92 | 1021.6 |
| 20260507141530 | 7 | 91 | 0.0 | 6.4 | 0.00 | 0.00 | 0.00 | 92 | 1021.4 |
| 20260507140031 | 6 | 105 | 0.0 | 3.2 | 0.00 | 0.00 | 0.00 | 91 | 1021.3 |
| 20260507133145 | 6 | 199 | 1.6 | 4.8 | 0.00 | 0.00 | 0.00 | 91 | 1021.2 |
| 20260507131531 | 6 | 103 | 0.0 | 4.8 | 0.00 | 0.00 | 0.00 | 90 | 1021.1 |
| 20260507130105 | 7 | 102 | 1.6 | 3.2 | 0.00 | 0.00 | 0.00 | 90 | 1021.0 |
| 20260507124605 | 7 | 56 | 1.6 | 6.4 | 0.00 | 0.00 | 0.00 | 90 | 1021.0 |
| 20260507123029 | 7 | 88 | 0.0 | 4.8 | 0.00 | 0.00 | 0.00 | 90 | 1020.8 |
| 20260507121647 | 7 | 88 | 3.2 | 8.0 | 0.00 | 0.00 | 0.00 | 89 | 1020.8 |
| 20260507114534 | 7 | 98 | 1.6 | 6.4 | 0.00 | 0.00 | 0.00 | 88 | 1020.7 |
| 20260507113146 | 7 | 92 | 3.2 | 6.4 | 0.00 | 0.00 | 0.00 | 87 | 1020.5 |
| 20260507111530 | 7 | 155 | 1.6 | 8.0 | 0.00 | 0.00 | 0.00 | 86 | 1020.4 |
| 20260507110029 | 8 | 76 | 1.6 | 6.4 | 0.00 | 0.00 | 0.00 | 85 | 1020.3 |
| 20260507103033 | 9 | 110 | 1.6 | 6.4 | 0.00 | 0.00 | 0.00 | 82 | 1020.3 |
| 20260507101530 | 10 | 109 | 3.2 | 6.4 | 0.00 | 0.00 | 0.00 | 81 | 1020.2 |
| 20260507094531 | 11 | 310 | 0.0 | 6.4 | 0.00 | 0.00 | 0.00 | 80 | 1020.4 |
| 20260507091530 | 11 | 303 | 0.0 | 8.0 | 0.00 | 0.00 | 0.00 | 81 | 1020.3 |
| 20260507090028 | 11 | 16 | 1.6 | 8.0 | 0.00 | 0.00 | 0.00 | 82 | 1020.4 |
| 20260507084530 | 11 | 28 | 3.2 | 9.7 | 0.00 | 0.00 | 0.00 | 82 | 1020.4 |
| 20260507083143 | 11 | 5 | 3.2 | 12.9 | 0.00 | 0.00 | 0.00 | 82 | 1020.5 |
| 20260507081531 | 11 | 53 | 1.6 | 8.0 | 0.00 | 0.00 | 0.00 | 82 | 1020.5 |
| 20260507080030 | 11 | 51 | 1.6 | 9.7 | 0.00 | 0.00 | 0.00 | 83 | 1020.6 |
| 20260507074528 | 11 | 69 | 1.6 | 9.7 | 0.00 | 0.00 | 0.00 | 83 | 1020.5 |
| 20260507073028 | 10 | 70 | 0.0 | 6.4 | 0.00 | 0.00 | 0.00 | 82 | 1020.4 |
| 20260507071532 | 10 | 229 | 0.0 | 6.4 | 0.00 | 0.00 | 0.00 | 81 | 1020.4 |
| 20260507064533 | 11 | 139 | 0.0 | 4.8 | 0.00 | 0.00 | 0.00 | 76 | 1020.6 |
| 20260507063030 | 11 | 166 | 0.0 | 6.4 | 0.00 | 0.00 | 0.00 | 73 | 1020.7 |
| 20260507061530 | 12 | 150 | 1.6 | 6.4 | 0.00 | 0.00 | 0.00 | 69 | 1020.8 |
| 20260507054530 | 13 | 335 | 3.2 | 12.9 | 0.00 | 0.00 | 0.00 | 61 | 1020.9 |
| 20260507053030 | 14 | 350 | 3.2 | 6.4 | 0.00 | 0.00 | 0.00 | 59 | 1021.0 |
| 20260507050031 | 15 | 271 | 3.2 | 9.7 | 0.00 | 0.00 | 0.00 | 54 | 1020.9 |
| 20260507044530 | 15 | 247 | 6.4 | 12.9 | 0.00 | 0.00 | 0.00 | 53 | 1021.0 |
| 20260507043029 | 16 | 247 | 4.8 | 8.0 | 0.00 | 0.00 | 0.00 | 52 | 1021.0 |
| 20260507040037 | 16 | 282 | 8.0 | 17.7 | 0.00 | 0.00 | 0.00 | 51 | 1020.8 |
| 20260507033108 | 17 | 285 | 8.0 | 17.7 | 0.00 | 0.00 | 0.00 | 48 | 1020.6 |
| 20260507031530 | 17 | 300 | 11.3 | 22.5 | 0.00 | 0.00 | 0.00 | 48 | 1020.5 |
| 20260507030104 | 18 | 304 | 11.3 | 30.6 | 0.00 | 0.00 | 0.00 | 49 | 1020.3 |
| 20260507024530 | 18 | 298 | 9.7 | 25.7 | 0.00 | 0.00 | 0.00 | 49 | 1020.2 |
| 20260507021528 | 18 | 296 | 9.7 | 22.5 | 0.00 | 0.00 | 0.00 | 49 | 1020.2 |
| 20260507020030 | 18 | 289 | 9.7 | 24.1 | 0.00 | 0.00 | 0.00 | 49 | 1020.1 |
| 20260507013027 | 19 | 305 | 6.4 | 16.1 | 0.00 | 0.00 | 0.00 | 49 | 1019.9 |
| 20260507011530 | 19 | 326 | 6.4 | 17.7 | 0.00 | 0.00 | 0.00 | 48 | 1019.8 |
| 20260507010027 | 20 | 326 | 9.7 | 20.9 | 0.00 | 0.00 | 0.00 | 45 | 1019.6 |
| 20260507004530 | 20 | 308 | 11.3 | 24.1 | 0.00 | 0.00 | 0.00 | 45 | 1019.5 |
| 20260507003032 | 20 | 308 | 9.7 | 22.5 | 0.00 | 0.00 | 0.00 | 45 | 1019.5 |
| 20260507001532 | 20 | 299 | 9.7 | 25.7 | 0.00 | 0.00 | 0.00 | 45 | 1019.4 |
| 20260507000028 | 21 | 328 | 12.9 | 25.7 | 0.00 | 0.00 | 0.00 | 45 | 1019.2 |
| 20260506234532 | 22 | 325 | 11.3 | 29.0 | 0.00 | 0.00 | 0.00 | 44 | 1019.2 |
| 20260506233029 | 22 | 334 | 9.7 | 16.1 | 0.00 | 0.00 | 0.00 | 43 | 1019.2 |
| 20260506231526 | 23 | 318 | 12.9 | 25.7 | 0.00 | 0.00 | 0.00 | 42 | 1019.2 |
| 20260506224528 | 23 | 299 | 11.3 | 25.7 | 0.00 | 0.00 | 0.00 | 44 | 1019.4 |
| 20260506223031 | 23 | 318 | 14.5 | 24.1 | 0.00 | 0.00 | 0.00 | 43 | 1019.5 |
| 20260506221529 | 23 | 315 | 14.5 | 29.0 | 0.00 | 0.00 | 0.00 | 42 | 1019.5 |